This demonstration page uses our WeatherBlox Daily Observations layout. Learn more.

40.92945, -100.16068

Hourly Observations for January 30, 2020

Temp ( °F °C ) Dew Point ( °F °C ) Humidity (%) Winds ( mph kmh ) Pressure ( in mb ) Visibility ( mi km ) Precip ( " mm )
12:15 am 00:15 Cloudy 34 1.1 33 0.6 97 97 SSW 3 6 30.12 1020 10 16.0934 0 0
12:35 am 00:35 Cloudy 34 1.2 33 0.6 96 96 Calm 30.12 1020 10 16.0934 0 0
12:55 am 00:55 Cloudy 33 0.6 33 0.4 99 99 Calm 30.12 1020 10 16.0934 0 0
1:15 am 01:15 Cloudy 33 0.5 32 0.2 98 98 Calm 30.11 1020 10 16.0934 0 0
1:35 am 01:35 Cloudy 33 0.5 33 0.3 99 99 Calm 30.11 1020 10 16.0934 0 0
1:55 am 01:55 Cloudy 33 0.5 33 0.4 99 99 Calm 30.1 1019 10 16.0934 0 0
2:15 am 02:15 Cloudy 33 0.5 33 0.3 99 99 S 5 7 30.1 1019 10 16.0934 0 0
2:35 am 02:35 Cloudy 33 0.6 33 0.5 99 99 SSW 5 7 30.11 1020 10 16.0934 0 0
2:55 am 02:55 Cloudy 33 0.8 33 0.5 98 98 Calm 30.09 1019 10 16.0934 0 0
3:15 am 03:15 Cloudy 33 0.5 33 0.3 99 99 SW 3 6 30.09 1019 10 16.0934 0 0
3:35 am 03:35 Cloudy 33 0.7 33 0.3 97 97 WSW 3 6 30.08 1019 10 16.0934 0 0
3:55 am 03:55 Cloudy 33 0.5 32 0.1 97 97 Calm 30.08 1019 10 16.0934 0 0
4:15 am 04:15 Cloudy 32 0.1 32 0 99 99 SW 3 6 30.08 1018 10 16.0934 0 0
4:35 am 04:35 Cloudy 32 0.1 32 0.1 100 100 Calm 30.08 1018 10 16.0934 0 0
4:55 am 04:55 Cloudy 32 0 32 -0.1 99 99 Calm 30.07 1018 10 16.0934 0 0
5:15 am 05:15 Mostly Cloudy 31 -0.3 31 -0.3 100 100 Calm 30.07 1018 7 11.26538 0 0
5:35 am 05:35 Partly Cloudy with Mist and Fog 31 -0.7 31 -0.7 100 100 Calm 30.07 1018 1.75 2.816345 0 0
5:55 am 05:55 Mostly Cloudy with Mist and Fog 30 -1.1 30 -1.1 100 100 Calm 30.08 1019 1 1.60934 0 0
6:15 am 06:15 Clear 30 -1 30 -1 100 100 Calm 30.08 1019 7 11.26538 0 0
6:35 am 06:35 Mostly Cloudy with Mist and Fog 30 -1.2 30 -1.2 100 100 Calm 30.08 1019 1.75 2.816345 0 0
6:55 am 06:55 Cloudy with Freezing Fog 29 -1.7 29 -1.7 100 100 Calm 30.08 1019 0.5 0.80467 0 0
7:15 am 07:15 Cloudy with Mist and Fog 28 -2.2 28 -2.2 100 100 Calm 30.09 1019 0.75 1.207005 0 0
7:35 am 07:35 Partly Cloudy with Mist and Fog 28 -2 28 -2 100 100 SSW 3 6 30.09 1019 2.5 4.02335 0 0
7:55 am 07:55 Partly Cloudy 29 -1.8 29 -1.8 100 100 S 5 7 30.08 1019 10 16.0934 0 0
8:15 am 08:15 Partly Cloudy 29 -1.5 29 -1.5 100 100 SSW 5 7 30.08 1019 10 16.0934 0 0
8:35 am 08:35 Partly Cloudy 30 -1.2 30 -1.3 99 99 S 6 9 30.08 1019 10 16.0934 0 0
8:55 am 08:55 Partly Cloudy 30 -1.1 30 -1.2 99 99 S 3 6 30.07 1018 10 16.0934 0 0
9:15 am 09:15 Partly Cloudy 31 -0.8 30 -1 99 99 SE 3 6 30.06 1018 10 16.0934 0 0
9:35 am 09:35 Partly Cloudy 31 -0.7 30 -0.9 99 99 SSE 3 6 30.07 1018 10 16.0934 0 0
9:55 am 09:55 Mostly Cloudy 32 0 32 -0.1 99 99 S 5 7 30.07 1018 10 16.0934 0 0
10:15 am 10:15 Cloudy 32 0.2 32 0 99 99 Calm 30.06 1018 10 16.0934 0 0
10:35 am 10:35 Cloudy 34 1.1 33 0.5 96 96 SSW 5 7 30.05 1017 10 16.0934 0 0
10:55 am 10:55 Cloudy 36 2.1 34 1 93 93 S 5 7 30.03 1017 10 16.0934 0 0
11:15 am 11:15 Cloudy 38 3.3 35 1.8 90 90 S 5 7 30.02 1017 10 16.0934 0 0
11:35 am 11:35 Cloudy 39 4.1 36 2.1 87 87 WSW 6 9 30.03 1017 10 16.0934 0 0
11:55 am 11:55 Cloudy 40 4.4 37 2.5 88 88 WSW 5 7 30.01 1016 10 16.0934 0 0
12:15 pm 12:15 Mostly Cloudy 41 5.1 37 2.9 86 86 WSW 6 9 30 1016 10 16.0934 0 0
12:35 pm 12:35 Partly Cloudy 43 6.1 37 2.9 80 80 SW 7 11 29.97 1015 10 16.0934 0 0
12:55 pm 12:55 Partly Cloudy 45 7 37 2.8 75 75 SW 8 13 29.95 1014 10 16.0934 0 0
1:15 pm 13:15 Sunny 46 7.5 38 3.1 74 74 WSW 7 11 29.94 1014 10 16.0934 0 0
1:35 pm 13:35 Sunny 46 7.8 38 3.2 73 73 WSW 9 15 29.94 1014 10 16.0934 0 0
1:55 pm 13:55 Sunny 47 8.3 37 2.8 69 69 WSW 10 17 29.92 1013 10 16.0934 0 0
2:15 pm 14:15 Sunny 47 8.6 36 2.1 64 64 W 13 20 29.91 1013 10 16.0934 0 0
2:35 pm 14:35 Sunny 48 8.8 36 2.3 64 64 WSW 9 15 29.9 1013 10 16.0934 0 0
2:55 pm 14:55 Sunny 48 9.1 37 2.5 64 64 SW 12 19 29.89 1012 10 16.0934 0 0
3:15 pm 15:15 Sunny 49 9.3 35 1.9 60 60 SW 6 9 29.89 1012 10 16.0934 0 0
3:35 pm 15:35 Partly Cloudy 49 9.5 35 1.6 58 58 WSW 8 13 29.89 1012 10 16.0934 0 0
3:55 pm 15:55 Mostly Cloudy 49 9.6 34 1.2 56 56 SW 10 17 29.88 1012 10 16.0934 0 0
4:15 pm 16:15 Mostly Cloudy 49 9.6 34 1.1 56 56 SW 9 15 29.88 1012 10 16.0934 0 0
4:35 pm 16:35 Partly Cloudy 47 8.6 35 1.8 63 63 WSW 5 7 29.9 1013 10 16.0934 0 0
4:55 pm 16:55 Partly Cloudy 48 8.8 31 -0.5 52 52 W 10 17 29.9 1013 10 16.0934 0 0
5:15 pm 17:15 Sunny 44 6.6 32 -0.1 63 63 W 9 15 29.92 1013 10 16.0934 0 0
5:35 pm 17:35 Sunny 41 4.8 32 -0.2 70 70 W 7 11 29.95 1014 10 16.0934 0 0
5:55 pm 17:55 Clear 40 4.2 31 -0.8 70 70 W 5 7 29.96 1014 10 16.0934 0 0
6:15 pm 18:15 Clear 38 3.4 31 -0.8 74 74 W 7 11 29.96 1015 10 16.0934 0 0
6:35 pm 18:35 Clear 37 3 30 -1.2 74 74 W 7 11 29.99 1015 10 16.0934 0 0
6:55 pm 18:55 Clear 35 1.9 30 -1.3 80 80 W 8 13 30 1016 10 16.0934 0 0
7:15 pm 19:15 Clear 36 2.4 30 -1.3 77 77 W 12 19 30 1016 10 16.0934 0 0
7:35 pm 19:35 Clear 37 2.5 30 -1 78 78 WNW 12 19 30.01 1016 10 16.0934 0 0
7:55 pm 19:55 Partly Cloudy 36 2 31 -0.8 82 82 WNW 13 20 30.03 1017 10 16.0934 0 0
8:15 pm 20:15 Partly Cloudy 36 2.1 31 -0.8 81 81 WNW 12 19 30.04 1017 10 16.0934 0 0
8:35 pm 20:35 Partly Cloudy 35 1.4 31 -0.8 85 85 WNW 10 17 30.05 1018 10 16.0934 0 0
8:55 pm 20:55 Partly Cloudy 33 0.8 31 -0.8 89 89 WNW 8 13 30.06 1018 10 16.0934 0 0
9:15 pm 21:15 Mostly Cloudy 33 0.6 31 -0.5 92 92 WNW 9 15 30.07 1018 10 16.0934 0 0
9:35 pm 21:35 Cloudy 34 1.3 31 -0.3 89 89 WNW 13 20 30.07 1018 10 16.0934 0 0
9:55 pm 21:55 Cloudy 35 1.8 32 0 88 88 WNW 14 22 30.07 1018 10 16.0934 0 0
10:15 pm 22:15 Cloudy 35 1.8 32 0 88 88 NW 14 22 30.08 1019 10 16.0934 0 0
10:35 pm 22:35 Partly Cloudy 34 1.1 32 0 92 92 NW 10 17 30.09 1019 10 16.0934 0 0
10:55 pm 22:55 Mostly Cloudy 34 1 32 0 93 93 NW 12 19 30.09 1019 10 16.0934 0 0
11:15 pm 23:15 Cloudy 35 1.7 32 0 89 89 NW 12 19 30.08 1019 10 16.0934 0 0
11:35 pm 23:35 Cloudy 36 2 32 0.2 88 88 NW 13 20 30.09 1019 10 16.0934 0 0
11:55 pm 23:55 Cloudy 35 1.6 33 0.3 91 91 NW 13 20 30.09 1019 10 16.0934 0 0

Powered by AerisWeather